الصفحة الرئيسية
METAR-TAF:

METAR-TAF

مطار :

Rivas, نيكاراغوا

دائرة عرض: 11-25N, خط طول: 085-50W, ارتفاع: 53 متر

مراقبة الطقس الحالي

تاريخ ووقت الإصدار 1ساعة و 8 دقيقة قبل الساعة 23:00UTC
ريح 4 عقدة من الشرق/الجنوب الشرقي
درجة الحرارة 27°درجة مئوية
الرطوبة 84%
ضغط 1009 hPa
الرؤية 10 كم أو أكثر
غيوم قليلة على ارتفاع 1200 قدم, مزنة ركامية.
غيوم متفرقة على ارتفاع 1500 قدم

METAR: MNRS 192300Z 12004KT 9999 FEW012CB SCT015 27/24 Q1009 CB/N/NE/E/SE/S

زمن: 18:08 (00:08 UTC)


TAF: مفقودة

أرصاد الطقس والتوقعات من أكثر من 4000 مطار (تقارير الطقس للمطار METAR والتنبؤ بالطقس بالمطارTAF).

المحطات المتاحة هي النقط الصفراء والحمراء على الخريطة.

حرك المؤشر فوق النقطة لمعرفة اسم المحطة.

ثم انقر لمعرفة أرصاد وتوقعات الطقس.

لتغيير الخارطة: اضغط على الأزرار الخضراء مع رمز الصليب الأسود للتكبير. على الزر الأخضر مع شرطة للتصغير، أو على الأسهم الخضراء للخرائط المجاورة.


METAR-TAF: